sat.trackr.live / text

‹ back to catalog

STARLINK-30818

NORAD 58217 · 2023-170M

PAYLOAD ACTIVE UNKNOWN

§ Identity

Operator
Country
US
Launch date
2023-11-03
Launch site
AFETR
Launch vehicle
Mass (kg)
RCS (m²)

Purposes: comms

External: N2YO · Heavens-Above · Gunter

§ Orbital elements

Epoch: 2026-09-20T02:23:36.379104Z

Period
94.27 min
Inclination
43.0021°
Eccentricity
0.0001896
Mean motion
15.27577188 rev/d
Perigee alt
481.8 km
Apogee alt
484.4 km
Semi-major
6,861.2 km
B*
2.9493e-5
RAAN
176.1563°
Arg perigee
259.1346°
Mean anomaly
100.9293°
Rev number
16,003

§ Raw data

STARLINK-308181 58217U 23170M   26263.09972661  .00000549  00000+0  29493-4 0  99932 58217  43.0021 176.1563 0001896 259.1346 100.9293 15.27577188160033

JSON: /api/v1/satellites/58217 · /tle

For live sub-satellite position, see the globe view (requires WebGL).

§ Visibility from observer

Set your observer location to see the next 7 days of passes ≥ 10°. The values pass through the URL so the page stays shareable.

No JS? Fill the form by hand. The geolocation button needs JavaScript.